Retour au catalogue

BREEZE-M DEB

TANK

ActifHEO
NORAD 35875·DEBRIS·🇷🇺 Russia

Lancé Sep 17, 2009 depuis Baikonur Cosmodrome

Loading…

Prochains Passages (prochaines 24 heures)

TLE

FraisSource: Space-Track

Époque: Sep 14, 2026, 06:51 UTC

1 35875U 09050C   26257.28572945  .00000775  00000-0  47049-3 0  9992
2 35875  49.3540 194.3493 5913167 352.3777   1.5352  4.11346286247457

Suivez BREEZE-M DEB en temps réel avec AllMySat

Download on the App Store